Theta_e
316 319 322 325 323 324 326 325 322 321 318 316 315 313 311 312 311 312 313 313 313 312 312 312 312 312 311 313 313 301 295 293 292 289 287 287 288 289 291 291 292 292 294
311 313 315 318 321 322 322 323 323 322 320 318 317 318 317 314 312 312 311 312 311 311 311 311 311 311 310 311 310 300 295 294 292 293 290 286 287 288 290 290 289 289 290
306 308 309 312 315 317 319 320 321 322 321 320 319 317 315 313 310 310 310 310 308 308 308 308 309 310 309 308 309 301 298 295 292 294 296 291 293 289 289 288 288 287 288
304 306 307 308 310 312 315 317 318 318 320 320 317 315 313 312 314 314 314 310 306 304 305 305 307 308 308 307 308 307 301 301 294 294 297 298 296 290 286 288 287 288 287
305 305 307 308 309 311 311 313 314 315 316 317 317 315 313 314 314 314 312 309 305 303 302 303 304 305 307 307 307 307 305 304 300 296 297 296 293 293 290 286 284 286 286
306 307 308 309 309 310 310 310 310 311 313 314 315 314 314 313 311 311 311 309 306 303 301 301 302 304 305 305 305 305 305 304 303 301 299 296 293 290 288 287 285 284 285
302 303 304 306 308 309 309 309 308 309 311 312 312 312 313 313 311 311 310 310 308 304 302 300 300 301 304 304 304 303 303 303 303 301 301 299 298 294 291 289 284 284 285
301 301 302 304 305 307 308 308 308 308 309 310 310 312 312 313 311 310 310 310 310 308 305 300 299 300 302 303 302 300 300 300 300 302 301 300 299 297 295 290 286 282 283
299 300 301 302 303 304 305 306 306 306 307 308 309 309 310 310 310 311 310 309 310 308 306 303 299 298 300 300 299 298 297 297 297 297 298 300 298 296 294 292 290 293 287
298 299 300 300 301 302 303 303 303 303 304 305 305 306 307 308 309 309 309 308 308 308 307 303 300 298 298 298 297 296 296 294 293 292 292 294 295 294 292 292 292 291 291
298 298 299 300 300 299 298 299 300 300 300 301 302 303 304 305 306 306 307 307 307 307 305 304 301 298 296 296 294 293 293 291 290 290 288 288 289 288 288 289 290 290 290
297 298 298 298 296 294 295 295 296 297 298 298 299 299 300 301 302 303 304 305 305 305 305 304 302 298 295 295 293 292 291 290 288 288 287 285 286 285 285 286 286 287 288
296 296 297 294 293 293 293 294 294 295 296 297 297 297 298 298 299 300 301 302 302 302 302 301 300 297 295 294 292 291 290 289 288 287 286 285 284 282 283 283 284 285 285
294 294 294 292 292 293 293 293 294 294 295 296 296 296 297 297 297 298 298 298 299 299 299 299 299 297 296 293 292 289 289 288 288 287 286 285 284 282 281 281 282 283 282
292 293 290 291 291 292 292 293 293 294 294 294 294 295 296 296 295 295 296 296 296 296 297 297 297 297 295 294 291 290 287 287 286 286 285 284 284 284 283 281 280 280 280
291 293 290 290 291 291 291 292 292 293 293 292 292 294 294 294 294 294 294 294 294 294 294 294 294 293 293 290 291 290 288 286 285 285 284 283 283 282 283 284 283 281 279
292 293 291 291 292 291 292 291 291 292 291 291 291 292 292 291 292 293 292 292 292 293 292 292 292 292 292 292 291 289 288 286 285 284 283 282 281 281 281 283 283 283 283
291 293 292 292 291 291 292 291 291 291 290 290 290 291 290 290 290 291 290 290 291 291 291 290 291 291 291 292 291 288 286 286 285 284 283 282 280 280 280 280 280 280 280
292 292 293 293 290 290 291 291 290 289 289 288 289 289 289 288 288 288 288 289 290 290 290 289 289 289 289 290 290 289 286 284 284 283 282 282 281 281 282 279 278 278 279
293 291 292 291 290 290 291 288 287 287 287 288 288 288 288 287 287 287 287 288 289 287 287 286 287 287 287 289 289 288 285 284 283 282 281 282 281 282 283 279 278 277 278
291 290 289 289 289 290 289 287 287 286 287 288 287 286 286 286 287 286 286 286 286 286 286 285 286 286 286 286 288 288 285 284 283 282 280 280 283 283 283 283 279 279 280
289 289 288 288 289 288 287 286 285 287 287 287 286 285 285 285 284 284 284 284 285 284 284 284 284 285 285 285 286 287 287 287 283 282 281 280 282 283 283 283 282 282 281
287 288 287 286 287 287 286 285 285 286 285 284 283 283 283 283 284 283 283 283 284 283 283 283 283 283 284 284 286 286 285 286 285 284 283 282 282 283 283 283 283 281 279
286 287 286 285 285 286 285 286 286 285 283 282 282 282 282 282 283 283 283 283 283 283 283 282 282 283 283 283 283 282 282 282 283 285 283 282 282 282 282 280 282 281 279
286 286 285 285 285 286 285 286 285 284 282 282 282 282 282 282 282 283 283 283 284 284 283 284 284 283 283 283 284 283 281 282 282 283 281 279 278 278 279 279 279 280 279
285 284 284 284 284 284 284 284 284 282 281 281 281 281 281 281 281 282 282 286 286 285 285 286 285 284 286 286 285 285 284 283 284 282 279 277 277 277 277 277 277 278 278
Wind_Speed
7 7 9 10 11 10 10 10 11 10 7 6 5 5 5 5 3 3 5 5 5 5 4 4 5 4 5 5 7 5 7 4 5 4 2 1 1 1 1 2 3 4 2
7 6 8 9 12 12 11 10 10 10 9 6 6 5 2 3 4 4 5 7 6 6 6 6 5 5 5 6 6 8 6 3 7 3 2 3 3 5 5 4 4 5 4
7 6 7 8 8 9 9 9 9 9 9 8 5 4 2 3 4 6 7 8 8 7 7 7 5 6 6 7 6 10 11 7 8 9 3 2 4 4 4 6 5 6 5
8 8 9 9 7 7 7 8 8 9 8 9 8 9 8 8 7 7 6 6 10 9 9 8 7 7 7 9 8 9 10 8 7 5 7 4 1 4 4 4 6 6 6
10 10 10 9 7 7 5 5 6 8 8 8 11 9 11 9 7 5 8 9 9 10 9 9 9 8 8 9 10 9 11 10 8 8 4 6 3 3 3 4 5 6 7
13 13 10 8 8 5 3 3 4 6 8 9 11 13 13 11 9 9 7 7 7 7 10 9 10 9 8 10 9 11 12 11 10 9 10 8 5 6 4 3 3 6 7
12 12 10 8 6 7 6 5 5 6 7 9 11 13 13 12 12 12 10 10 7 7 9 10 9 8 9 10 9 10 10 11 11 13 9 10 10 3 4 4 3 4 4
10 10 8 7 7 7 7 7 7 7 7 9 11 11 12 8 10 11 9 8 8 8 9 9 10 11 10 9 9 8 8 10 11 14 12 9 10 8 8 5 5 3 5
10 11 10 9 9 10 10 10 10 9 9 9 9 11 10 12 11 13 12 10 12 8 9 10 9 10 10 9 8 8 9 9 9 9 11 10 8 7 8 7 5 9 7
10 9 8 8 8 9 9 10 10 11 10 10 9 9 11 11 11 11 13 14 13 14 10 10 11 10 10 9 9 8 8 8 7 7 9 9 7 7 8 9 9 9 10
10 7 6 9 10 11 11 11 11 12 11 10 10 10 10 11 11 11 12 12 12 12 13 11 11 11 11 10 10 10 9 10 10 9 9 9 7 6 5 6 6 7 8
8 7 8 7 7 9 10 11 11 10 9 10 10 10 10 11 11 11 13 13 14 12 13 13 12 11 12 11 12 12 11 12 12 11 10 10 7 8 7 5 8 7 6
9 7 6 5 6 8 9 10 10 9 9 9 10 10 11 11 11 11 11 12 13 14 13 13 13 12 12 13 12 12 12 12 12 12 12 11 10 8 6 7 6 5 4
7 6 3 5 7 8 11 12 12 12 11 11 11 12 12 11 11 12 12 12 12 13 13 14 15 14 14 13 14 12 12 12 12 12 11 11 11 11 9 8 7 4 4
4 3 3 5 8 10 13 12 12 11 11 12 12 13 14 13 12 11 11 12 12 12 13 14 15 15 13 11 14 13 13 13 12 12 11 10 10 14 12 8 8 8 6
5 6 5 6 8 12 13 11 12 12 10 12 13 13 12 13 13 12 12 11 12 12 12 13 14 15 11 14 18 16 12 13 13 12 12 11 11 13 18 17 15 13 11
6 8 7 8 8 11 11 12 14 14 14 14 14 14 14 14 13 13 12 12 12 12 12 13 13 14 14 18 17 21 13 12 12 13 11 11 9 12 12 19 19 16 18
7 8 8 9 11 10 11 12 13 14 14 15 15 14 14 14 14 13 13 14 12 12 11 12 12 13 13 17 18 20 15 13 13 13 13 12 12 13 13 11 11 10 10
5 7 8 9 11 12 11 12 13 14 14 15 15 14 13 15 15 15 14 13 12 12 12 11 12 13 13 16 17 16 13 14 15 12 12 13 13 17 23 13 13 11 9
7 7 7 9 11 12 10 11 13 13 14 14 14 13 13 14 15 15 15 13 12 12 10 12 12 13 14 16 16 16 10 14 10 11 12 17 15 19 23 14 12 12 12
10 10 8 10 13 12 9 11 13 16 14 13 13 12 12 14 15 15 13 13 12 12 12 13 11 12 13 13 18 19 12 11 10 10 9 9 22 21 22 24 12 14 8
9 9 9 11 12 10 8 12 15 14 12 13 14 13 14 12 12 15 13 13 12 12 12 12 11 9 10 13 18 21 22 19 12 11 8 8 18 23 24 20 20 17 12
7 8 10 12 11 11 7 13 17 12 12 12 13 14 15 14 13 14 14 10 11 10 10 9 9 9 6 7 18 21 22 22 16 9 11 14 19 22 21 23 22 16 8
9 9 10 13 16 12 10 13 15 12 9 12 15 14 14 15 13 11 10 10 9 9 9 9 9 9 7 7 6 7 8 15 13 15 10 11 14 14 12 10 14 9 8
9 9 11 14 15 13 14 15 12 9 11 13 14 15 12 13 13 12 11 11 11 11 9 9 9 8 9 7 9 9 6 6 8 8 6 8 7 7 7 7 8 7 7
11 12 13 13 15 14 15 16 10 8 12 15 13 12 11 12 12 12 13 17 21 22 23 23 18 11 16 16 14 13 15 16 15 6 7 8 8 8 8 7 7 6 8
Wind_Direction
272 259 245 227 230 233 229 219 214 215 203 209 207 225 230 219 220 239 238 230 205 214 232 252 257 238 240 240 170 125 140 144 135 123 131 135 220 240 190 158 151 148 139
293 263 269 258 245 243 238 242 240 231 219 222 225 248 261 239 230 222 230 236 234 220 227 227 236 246 251 241 156 152 158 131 187 188 164 195 208 219 206 194 194 178 172
6 343 318 295 286 273 263 262 259 255 249 236 251 242 260 262 233 232 232 224 228 227 226 239 233 227 232 237 206 177 179 188 196 222 237 174 227 150 191 217 209 202 198
15 17 16 7 354 339 321 291 272 263 251 246 240 241 241 248 237 233 227 217 221 220 220 224 231 222 222 228 232 179 191 192 194 211 237 232 284 194 192 206 216 222 216
40 42 38 30 28 24 349 310 288 268 255 241 243 248 250 259 260 249 232 233 223 220 218 221 228 226 220 226 226 214 194 206 191 201 160 203 205 225 216 186 197 218 216
63 59 52 38 33 29 9 327 286 265 249 242 243 247 253 258 261 256 243 243 238 225 227 227 231 235 235 228 229 226 226 210 219 205 204 192 177 190 180 214 172 202 203
59 48 39 28 18 17 10 357 325 294 264 245 243 245 246 251 252 254 253 246 238 231 229 221 224 230 238 237 233 235 231 231 219 220 218 218 224 175 191 174 174 192 176
36 35 30 16 6 357 350 350 342 320 299 278 273 270 267 263 259 260 258 263 251 250 237 216 219 225 237 238 236 236 241 237 236 231 220 226 224 211 209 192 164 195 209
19 14 23 22 12 2 355 349 339 332 327 310 298 288 282 273 272 269 269 271 269 261 252 242 225 226 234 235 236 237 237 243 253 252 250 238 232 218 220 221 201 223 217
14 23 24 19 12 2 353 350 347 339 333 323 312 302 296 288 282 278 276 275 271 270 254 252 245 231 228 227 230 236 239 240 241 247 252 249 247 233 219 222 222 225 234
12 29 16 13 21 19 11 1 359 353 350 342 328 315 302 294 287 280 276 272 272 270 267 254 250 243 228 216 218 223 227 225 228 230 229 241 242 243 240 239 231 228 228
24 28 24 34 23 11 2 352 348 342 337 329 322 311 302 298 291 283 279 277 270 266 265 259 248 241 239 228 220 218 220 222 222 225 224 225 218 228 234 231 229 229 227
12 356 8 13 4 358 351 343 332 321 315 315 310 304 299 297 290 285 281 277 276 270 265 259 247 244 235 227 227 227 222 221 224 223 219 217 208 206 212 223 230 225 218
336 340 357 350 347 342 340 331 323 327 323 320 316 307 303 299 294 293 289 284 276 270 264 259 254 245 235 229 225 213 221 229 227 222 222 216 212 200 194 203 211 190 193
312 274 287 323 331 332 329 335 335 326 323 319 309 303 308 302 291 284 282 280 275 272 269 266 261 254 245 236 219 216 218 220 223 221 218 213 208 204 198 190 190 178 178
288 249 263 301 330 328 337 328 322 312 311 299 295 297 294 290 286 281 279 279 276 273 270 265 263 262 255 247 233 224 222 222 222 220 214 211 201 202 211 206 199 185 181
261 249 258 296 316 328 314 312 309 309 304 303 300 295 293 289 286 284 286 279 273 274 271 267 264 262 259 256 235 227 233 230 225 224 215 206 204 200 203 213 208 205 204
266 269 259 289 313 303 297 300 304 303 300 297 297 298 298 299 298 292 285 288 282 272 268 266 263 262 260 253 244 228 233 240 236 225 216 210 203 197 197 198 202 207 204
271 282 283 291 295 288 293 293 293 292 291 294 294 296 297 297 298 291 287 284 281 276 271 265 264 261 262 251 249 231 232 234 235 226 217 209 207 202 199 192 196 199 216
255 276 275 277 269 272 279 289 283 286 284 286 291 295 292 288 286 289 290 286 278 273 272 268 260 261 267 262 251 235 239 247 237 227 220 212 208 204 202 200 200 201 205
270 279 270 261 262 273 274 269 277 273 279 284 289 290 288 285 283 284 281 280 276 273 268 266 262 257 253 257 254 244 235 239 244 233 221 216 215 217 206 210 202 207 185
268 261 264 263 263 265 268 273 273 278 283 284 287 288 289 287 283 279 277 275 269 266 264 265 268 260 256 244 249 249 246 245 243 240 239 214 211 214 214 213 212 210 186
270 268 269 277 277 276 260 272 274 287 284 282 282 284 286 284 279 275 273 273 268 261 265 265 267 265 252 242 247 247 249 250 246 237 232 219 212 216 219 215 211 201 186
275 280 280 277 281 281 274 265 280 289 284 278 280 280 275 278 275 268 263 261 254 258 256 256 259 261 254 241 231 234 244 253 250 246 220 208 206 208 207 206 213 204 191
276 274 278 281 284 288 282 281 286 287 279 279 278 279 276 279 283 273 269 260 254 247 260 259 257 259 257 246 233 225 228 241 240 232 178 187 187 189 201 194 195 196 188
282 279 281 284 283 285 284 282 286 274 276 283 284 281 285 286 285 284 283 265 258 256 255 258 258 263 262 267 268 261 247 252 256 231 191 193 194 190 188 183 188 194 196